"2009-12-04 00:00:00",1471966,4.601,228.1,3.494,0.587,-6.825,94.88577,-13.71,-12.28,63.46,0,108.8,13.9,-13.01,190.1
"2009-12-04 00:00:30",1471967,4.605,229.7,3.316,0.681,-6.876,94.88577,-13.71,-12.31,63.47,0,108.8,13.9,-13.01,191.7
"2009-12-04 00:01:00",1471968,4.562,229.4,1.903,0.742,-6.916,94.88432,-13.72,-12.32,63.51,0,108.8,13.9,-13.01,191.4
"2009-12-04 00:01:30",1471969,4.564,230.8,3.007,0.67,-6.952,94.88318,-13.72,-12.33,63.53,0,108.8,13.9,-13.01,192.8
"2009-12-04 00:02:00",1471970,4.599,230.5,3.448,0.569,-6.817,94.87505,-13.74,-12.31,63.58,0,108.8,13.9,-13.04,192.5
"2009-12-04 00:02:30",1471971,4.544,230.6,3.087,0.686,-6.979,94.86726,-13.76,-12.34,63.59,0,108.8,13.9,-13.06,192.6
"2009-12-04 00:03:00",1471972,4.666,231.4,2.974,0.671,-6.941,94.86628,-13.76,-12.35,63.59,0,108.8,13.91,-13.06,193.4
"2009-12-04 00:03:30",1471973,4.78,232.1,3.24,0.581,-7.082,94.86586,-13.76,-12.34,63.65,0,108.8,13.91,-13.06,194.1
"2009-12-04 00:04:00",1471974,4.647,231.2,3.977,0.686,-7.167,94.86681,-13.76,-12.33,63.72,0,108.8,13.91,-13.06,193.2
"2009-12-04 00:04:30",1471975,4.685,230.6,3.022,0.697,-7.147,94.86974,-13.75,-12.33,63.76,0,108.8,13.91,-13.05,192.6
"2009-12-04 00:05:00",1471976,4.73,229.7,3.272,0.601,-6.975,94.87028,-13.75,-12.35,63.79,0,108.8,13.9,-13.05,191.7
"2009-12-04 00:05:30",1471977,4.773,229.5,2.709,0.683,-7.19,94.87432,-13.74,-12.35,63.81,0,108.8,13.9,-13.04,191.5
"2009-12-04 00:06:00",1471978,4.662,230.3,3.232,0.698,-7.081,94.87756,-13.73,-12.36,63.79,0,108.8,13.9,-13.03,192.3
"2009-12-04 00:06:30",1471979,4.619,230.4,3.516,0.595,-6.977,94.8781,-13.73,-12.36,63.74,0,108.8,13.9,-13.03,192.4
"2009-12-04 00:07:00",1471980,4.654,230.4,3.229,0.592,-6.865,94.88215,-13.72,-12.36,63.72,0,108.8,13.9,-13.02,192.4
"2009-12-04 00:07:30",1471981,4.72,230.8,3.828,0.575,-6.875,94.88264,-13.72,-12.37,63.78,0,108.8,13.91,-13.02,192.8
"2009-12-04 00:08:00",1471982,4.691,232.3,2.907,0.594,-6.802,94.88149,-13.72,-12.35,63.87,0,108.8,13.9,-13.02,194.3
"2009-12-04 00:08:30",1471983,4.595,232.2,3.005,0.676,-6.824,94.87864,-13.73,-12.38,63.96,0,108.8,13.91,-13.03,194.2
"2009-12-04 00:09:00",1471984,4.547,231.9,3.006,0.673,-6.599,94.87011,-13.75,-12.36,64,0,108.8,13.91,-13.05,193.9
"2009-12-04 00:09:30",1471985,4.619,231.4,2.798,0.579,-6.847,94.86442,-13.77,-12.38,64.02,0,108.7,13.91,-13.06,193.4
"2009-12-04 00:10:00",1471986,4.512,232.8,2.733,0.741,-6.864,94.85732,-13.78,-12.36,64.08,0,108.7,13.91,-13.08,194.8
"2009-12-04 00:10:30",1471987,4.567,233.1,2.611,0.675,-6.933,94.85533,-13.79,-12.38,64.11,0,108.7,13.91,-13.09,195.1
"2009-12-04 00:11:00",1471988,4.568,233.5,2.453,0.755,-6.795,94.85448,-13.79,-12.39,64.17,0,108.7,13.91,-13.09,195.5
"2009-12-04 00:11:30",1471989,4.66,233.3,3.201,0.571,-6.807,94.85561,-13.79,-12.38,64.2,0,108.7,13.92,-13.08,195.3
"2009-12-04 00:12:00",1471990,4.629,233.9,3.06,0.673,-6.804,94.85277,-13.8,-12.38,64.22,0,108.7,13.92,-13.09,195.9
"2009-12-04 00:12:30",1471991,4.598,233.5,1.825,0.747,-6.941,94.85249,-13.8,-12.41,64.18,0,108.7,13.92,-13.09,195.5
"2009-12-04 00:13:00",1471992,4.63,232.5,2.969,0.68,-6.673,94.85078,-13.8,-12.39,64.15,0,108.7,13.92,-13.10,194.5
"2009-12-04 00:13:30",1471993,4.677,230.3,3.13,0.574,-6.724,94.85049,-13.8,-12.39,64.02,0,108.7,13.92,-13.10,192.3
"2009-12-04 00:14:00",1471994,4.518,230.6,2.372,0.749,-6.651,94.84993,-13.8,-12.39,63.84,0,108.7,13.92,-13.10,192.6
"2009-12-04 00:14:30",1471995,4.555,229.7,2.608,0.672,-6.675,94.84993,-13.8,-12.4,63.62,0,108.7,13.92,-13.10,191.7
"2009-12-04 00:15:00",1471996,4.517,228.6,2.539,0.75,-6.602,94.84993,-13.8,-12.4,63.48,0,108.7,13.93,-13.10,190.6
"2009-12-04 00:15:30",1471997,4.563,226.8,3.08,0.659,-6.691,94.84993,-13.8,-12.4,63.45,0,108.8,13.92,-13.10,188.8
"2009-12-04 00:16:00",1471998,4.474,225.7,2.851,0.756,-6.86,94.84993,-13.8,-12.39,63.41,0,108.7,13.93,-13.10,187.7
"2009-12-04 00:16:30",1471999,4.543,227.2,2.961,0.752,-6.868,94.85128,-13.8,-12.41,63.31,0,108.7,13.93,-13.10,189.2
"2009-12-04 00:17:00",1472000,4.588,229.4,2.908,0.753,-6.752,94.851,-13.8,-12.4,63.18,0,108.7,13.93,-13.10,191.4
"2009-12-04 00:17:30",1472001,4.635,229.7,4.049,0.683,-6.875,94.85155,-13.8,-12.41,62.98,0,108.7,13.93,-13.10,191.7
"2009-12-04 00:18:00",1472002,4.669,231.5,3.519,0.747,-6.945,94.851,-13.8,-12.41,62.96,0,108.7,13.93,-13.10,193.5
"2009-12-04 00:18:30",1472003,4.941,232,3.175,0.687,-6.964,94.85073,-13.8,-12.41,63.1,0,108.7,13.93,-13.10,194.0
"2009-12-04 00:19:00",1472004,4.7,228.5,3.208,0.66,-6.783,94.85046,-13.8,-12.41,63.31,0,108.7,13.93,-13.10,190.5
"2009-12-04 00:19:30",1472005,4.856,230.1,2.812,0.652,-6.902,94.85073,-13.8,-12.42,63.45,0,108.7,13.93,-13.10,192.1
"2009-12-04 00:20:00",1472006,4.821,229,3.093,0.683,-6.79,94.85287,-13.79,-12.41,63.55,0,108.7,13.93,-13.09,191.0
"2009-12-04 00:20:30",1472007,4.903,229.8,2.568,0.676,-6.838,94.85339,-13.79,-12.44,63.56,0,108.7,13.93,-13.09,191.8
"2009-12-04 00:21:00",1472008,4.92,229.9,2.687,0.67,-6.579,94.85499,-13.79,-12.42,63.57,0,108.7,13.93,-13.09,191.9
"2009-12-04 00:21:30",1472009,4.964,226.4,2.996,0.663,-6.532,94.85903,-13.78,-12.42,63.56,0,108.7,13.93,-13.08,188.4
"2009-12-04 00:22:00",1472010,4.88,226,2.942,0.687,-6.558,94.8625,-13.77,-12.4,63.52,0,108.7,13.93,-13.07,188.0
"2009-12-04 00:22:30",1472011,4.727,224.8,3.846,0.749,-6.535,94.86481,-13.76,-12.41,63.35,0,108.7,13.93,-13.06,186.8
"2009-12-04 00:23:00",1472012,4.835,222.7,3.103,0.691,-6.365,94.86202,-13.77,-12.41,63.04,0,108.7,13.93,-13.07,184.7
"2009-12-04 00:23:30",1472013,4.828,223.2,1.666,0.658,-6.633,94.8621,-13.77,-12.43,62.61,0,108.8,13.93,-13.07,185.2
"2009-12-04 00:24:00",1472014,4.751,223,2.721,0.748,-6.621,94.86315,-13.77,-12.42,62.27,0,108.7,13.93,-13.07,185.0
"2009-12-04 00:24:30",1472015,4.789,225.4,3.28,0.745,-6.649,94.8603,-13.78,-12.44,62.04,0,108.7,13.93,-13.07,187.4
"2009-12-04 00:25:00",1472016,4.753,224.5,2.801,0.748,-6.498,94.85739,-13.78,-12.42,62.03,0,108.7,13.93,-13.08,186.5
"2009-12-04 00:25:30",1472017,4.792,227.2,2.528,0.664,-6.713,94.85566,-13.79,-12.42,62.13,0,108.8,13.93,-13.08,189.2
"2009-12-04 00:26:00",1472018,4.8,228.4,3.109,0.659,-6.79,94.85449,-13.79,-12.41,62.33,0,108.7,13.93,-13.09,190.4
"2009-12-04 00:26:30",1472019,4.713,225.8,2.521,0.677,-6.629,94.85275,-13.8,-12.43,62.58,0,108.7,13.93,-13.09,187.8
"2009-12-04 00:27:00",1472020,4.751,225.8,1.858,0.677,-6.562,94.84968,-13.8,-12.44,62.68,0,108.7,13.93,-13.10,187.8
"2009-12-04 00:27:30",1472021,4.866,229.5,1.961,0.659,-6.827,94.84827,-13.81,-12.43,62.6,0,108.7,13.94,-13.10,191.5
"2009-12-04 00:28:00",1472022,4.903,230.4,2.821,0.603,-6.795,94.84744,-13.81,-12.41,62.66,0,108.7,13.94,-13.11,192.4
"2009-12-04 00:28:30",1472023,4.923,229.7,2.793,0.595,-6.696,94.84688,-13.81,-12.41,62.77,0,108.7,13.94,-13.11,191.7
"2009-12-04 00:29:00",1472024,4.806,230.1,2.937,0.612,-6.612,94.84659,-13.81,-12.41,62.81,0,108.7,13.94,-13.11,192.1
"2009-12-04 00:29:30",1472025,4.959,228.9,2.841,0.479,-6.7,94.84907,-13.8,-12.42,62.65,0,108.7,13.94,-13.10,190.9
"2009-12-04 00:30:00",1472026,4.842,229.8,3.036,0.677,-6.664,94.84958,-13.8,-12.41,62.43,0,108.7,13.94,-13.10,191.8
"2009-12-04 00:30:30",1472027,4.656,230.5,2.797,0.754,-6.668,94.84762,-13.81,-12.43,62.29,0,108.7,13.94,-13.11,192.5
"2009-12-04 00:31:00",1472028,4.557,226.1,2.536,0.757,-6.428,94.85176,-13.8,-12.41,62.31,0,108.7,13.94,-13.09,188.1
"2009-12-04 00:31:30",1472029,4.639,231.2,4.249,0.659,-6.695,94.85166,-13.8,-12.42,62.29,0,108.7,13.94,-13.09,193.2
"2009-12-04 00:32:00",1472030,4.527,228.5,3.859,0.681,-6.738,94.85386,-13.79,-12.41,62.3,0,108.7,13.94,-13.09,190.5
"2009-12-04 00:32:30",1472031,4.567,230,2.833,0.686,-6.806,94.8519,-13.8,-12.43,62.33,0,108.7,13.94,-13.09,192.0
"2009-12-04 00:33:00",1472032,4.505,229.9,2.929,0.684,-6.666,94.85045,-13.8,-12.42,62.35,0,108.7,13.94,-13.10,191.9
"2009-12-04 00:33:30",1472033,4.72,231.3,2.407,0.568,-6.991,94.85075,-13.8,-12.42,62.37,0,108.7,13.94,-13.10,193.3
"2009-12-04 00:34:00",1472034,4.557,231.1,3.206,0.689,-6.814,94.84988,-13.8,-12.41,62.47,0,108.7,13.94,-13.10,193.1
"2009-12-04 00:34:30",1472035,4.599,230.1,3.541,0.598,-6.802,94.84902,-13.8,-12.42,62.58,0,108.7,13.94,-13.10,192.1
"2009-12-04 00:35:00",1472036,4.682,231.2,3.165,0.598,-6.829,94.84846,-13.81,-12.43,62.61,0,108.7,13.94,-13.10,193.2
"2009-12-04 00:35:30",1472037,4.777,231.9,2.558,0.563,-6.98,94.84846,-13.81,-12.42,62.65,0,108.7,13.94,-13.10,193.9
"2009-12-04 00:36:00",1472038,4.7,231.2,3.411,0.602,-6.902,94.84846,-13.81,-12.41,62.72,0,108.7,13.95,-13.10,193.2
"2009-12-04 00:36:30",1472039,4.682,231.7,3.409,0.672,-6.91,94.84843,-13.81,-12.41,62.8,0,108.7,13.95,-13.10,193.7
"2009-12-04 00:37:00",1472040,4.736,232.2,2.623,0.689,-6.837,94.84817,-13.81,-12.41,63.01,0,108.7,13.95,-13.10,194.2
"2009-12-04 00:37:30",1472041,4.843,231.8,2.492,0.578,-6.895,94.84843,-13.81,-12.41,63.32,0,108.7,13.95,-13.10,193.8
"2009-12-04 00:38:00",1472042,4.903,233.4,3.13,0.678,-6.875,94.84872,-13.81,-12.41,63.64,0,108.7,13.94,-13.10,195.4
"2009-12-04 00:38:30",1472043,4.789,232.2,2.833,0.752,-6.762,94.84952,-13.8,-12.4,64.03,0,108.7,13.94,-13.10,194.2
"2009-12-04 00:39:00",1472044,4.817,231,3.779,0.598,-6.649,94.84952,-13.8,-12.4,64.32,0,108.7,13.94,-13.10,193.0
"2009-12-04 00:39:30",1472045,4.812,232.4,2.757,0.492,-6.827,94.84952,-13.8,-12.4,64.49,0,108.8,13.94,-13.10,194.4
"2009-12-04 00:40:00",1472046,4.811,230.2,4.386,0.627,-6.741,94.85059,-13.8,-12.38,64.65,0,108.7,13.94,-13.10,192.2
"2009-12-04 00:40:30",1472047,4.884,228.4,3.303,0.632,-6.661,94.84952,-13.8,-12.41,64.73,0,108.7,13.94,-13.10,190.4
"2009-12-04 00:41:00",1472048,4.829,228.5,3.254,0.579,-6.502,94.84952,-13.8,-12.39,64.78,0,108.7,13.94,-13.10,190.5
"2009-12-04 00:41:30",1472049,4.913,231.5,2.617,0.586,-6.777,94.84978,-13.8,-12.4,64.79,0,108.7,13.94,-13.10,193.5
"2009-12-04 00:42:00",1472050,4.969,229,3.929,0.602,-6.658,94.84952,-13.8,-12.39,64.85,0,108.7,13.94,-13.10,191.0
"2009-12-04 00:42:30",1472051,5.014,231.6,3.741,0.489,-6.657,94.85006,-13.8,-12.39,64.89,0,108.7,13.94,-13.10,193.6
"2009-12-04 00:43:00",1472052,4.883,229.9,3.188,0.682,-6.58,94.85006,-13.8,-12.41,65.01,0,108.7,13.95,-13.10,191.9
"2009-12-04 00:43:30",1472053,5.034,234.1,2.771,0.607,-6.724,94.85087,-13.8,-12.39,65.11,0,108.7,13.95,-13.10,196.1
"2009-12-04 00:44:00",1472054,5.196,234,3.001,0.583,-6.71,94.85006,-13.8,-12.38,65.21,0,108.7,13.96,-13.10,196.0
"2009-12-04 00:44:30",1472055,5.191,236.1,3.033,0.598,-6.667,94.85033,-13.8,-12.39,65.38,0,108.7,13.96,-13.10,198.1
"2009-12-04 00:45:00",1472056,5.018,230.9,4.056,0.526,-6.391,94.84978,-13.8,-12.4,65.54,0,108.7,13.96,-13.10,192.9
"2009-12-04 00:45:30",1472057,4.811,231,3.127,0.62,-6.614,94.85033,-13.8,-12.4,65.57,0,108.7,13.96,-13.10,193.0
"2009-12-04 00:46:00",1472058,4.776,231.4,3.039,0.681,-6.594,94.85168,-13.8,-12.38,65.59,0,108.7,13.96,-13.09,193.4
"2009-12-04 00:46:30",1472059,4.917,235.5,3.237,0.612,-6.644,94.85168,-13.8,-12.4,65.44,0,108.7,13.96,-13.09,197.5
"2009-12-04 00:47:00",1472060,5.098,236.5,3.425,0.611,-6.536,94.85141,-13.8,-12.39,65.37,0,108.7,13.96,-13.10,198.5
"2009-12-04 00:47:30",1472061,4.958,233.2,3.606,0.488,-6.516,94.85221,-13.8,-12.38,65.5,0,108.7,13.96,-13.09,195.2
"2009-12-04 00:48:00",1472062,4.892,234.4,3.638,0.597,-6.496,94.85356,-13.79,-12.39,65.6,0,108.7,13.96,-13.09,196.4
"2009-12-04 00:48:30",1472063,4.787,235.8,3.917,0.623,-6.54,94.85545,-13.79,-12.38,65.6,0,108.7,13.96,-13.09,197.8
"2009-12-04 00:49:00",1472064,4.565,236.4,3.998,0.618,-6.446,94.8549,-13.79,-12.38,65.58,0,108.7,13.96,-13.09,198.4
"2009-12-04 00:49:30",1472065,4.782,237.3,3.941,0.608,-6.583,94.85788,-13.78,-12.38,65.5,0,108.7,13.96,-13.08,199.3
"2009-12-04 00:50:00",1472066,4.798,239.5,4.059,0.524,-6.715,94.85868,-13.78,-12.39,65.52,0,108.7,13.96,-13.08,201.5
"2009-12-04 00:50:30",1472067,4.846,238.1,3.936,0.506,-6.641,94.85923,-13.78,-12.38,65.72,0,108.7,13.96,-13.08,200.1
"2009-12-04 00:51:00",1472068,4.738,238.9,4.365,0.599,-6.548,94.86301,-13.77,-12.37,65.84,0,108.7,13.96,-13.07,200.9
"2009-12-04 00:51:30",1472069,4.745,235.4,2.132,0.571,-6.724,94.86301,-13.77,-12.39,65.96,0,108.7,13.96,-13.07,197.4
"2009-12-04 00:52:00",1472070,4.783,237.1,2.996,0.599,-6.721,94.86354,-13.77,-12.39,65.99,0,108.7,13.96,-13.06,199.1
"2009-12-04 00:52:30",1472071,4.75,239,4.323,0.581,-6.8,94.8657,-13.76,-12.39,65.94,0,108.7,13.96,-13.06,201.0
"2009-12-04 00:53:00",1472072,4.743,235.6,3.451,0.585,-6.626,94.86462,-13.77,-12.38,65.91,0,108.7,13.96,-13.06,197.6
"2009-12-04 00:53:30",1472073,4.825,235.8,3.178,0.427,-6.751,94.8657,-13.76,-12.38,65.92,0,108.8,13.96,-13.06,197.8
"2009-12-04 00:54:00",1472074,4.747,237.4,3.858,0.487,-6.642,94.86624,-13.76,-12.35,65.91,0,108.7,13.96,-13.06,199.4
"2009-12-04 00:54:30",1472075,4.996,240.3,3.885,0.466,-6.829,94.86815,-13.76,-12.37,65.88,0,108.7,13.96,-13.05,202.3
"2009-12-04 00:55:00",1472076,4.949,240,3.8,0.499,-6.709,94.87057,-13.75,-12.36,65.95,0,108.7,13.96,-13.05,202.0
"2009-12-04 00:55:30",1472077,4.876,235.9,2.867,0.667,-6.786,94.87168,-13.75,-12.38,66.06,0,108.7,13.96,-13.04,197.9
"2009-12-04 00:56:00",1472078,4.946,233.9,4.287,0.405,-6.575,94.87356,-13.74,-12.37,66.01,0,108.7,13.96,-13.04,195.9
"2009-12-04 00:56:30",1472079,4.634,231.3,3.634,0.593,-6.635,94.87385,-13.74,-12.37,65.91,0,108.7,13.96,-13.04,193.3
"2009-12-04 00:57:00",1472080,4.819,233.1,3.472,0.595,-6.575,94.87353,-13.74,-12.36,65.77,0,108.7,13.96,-13.04,195.1
"2009-12-04 00:57:30",1472081,4.702,231.3,2.732,0.612,-6.617,94.87276,-13.74,-12.37,65.56,0,108.7,13.96,-13.04,193.3
"2009-12-04 00:58:00",1472082,4.791,231.4,4.566,0.509,-6.639,94.87684,-13.73,-12.36,65.3,0,108.7,13.96,-13.03,193.4
"2009-12-04 00:58:30",1472083,4.68,232,4.117,0.626,-6.684,94.87625,-13.74,-12.37,65.07,0,108.7,13.96,-13.03,194.0
"2009-12-04 00:59:00",1472084,4.723,230.4,4.547,0.626,-6.566,94.87547,-13.74,-12.36,64.91,0,108.7,13.96,-13.03,192.4
"2009-12-04 00:59:30",1472085,4.753,230.1,4.679,0.596,-6.567,94.87634,-13.74,-12.35,64.82,0,108.7,13.96,-13.03,192.1
"2009-12-04 01:00:00",1472086,4.637,230.5,3.918,0.6,-6.762,94.87711,-13.73,-12.35,64.76,0,108.7,13.97,-13.03,192.5
"2009-12-04 01:00:30",1472087,4.809,230.5,4.692,0.488,-6.589,94.87605,-13.74,-12.36,64.71,0,108.7,13.97,-13.03,192.5
"2009-12-04 01:01:00",1472088,4.677,233.6,4.554,0.511,-6.51,94.87664,-13.73,-12.35,64.72,0,108.7,13.97,-13.03,195.6
"2009-12-04 01:01:30",1472089,4.771,232.2,3.44,0.594,-6.731,94.87827,-13.73,-12.36,64.77,0,108.7,13.97,-13.03,194.2
"2009-12-04 01:02:00",1472090,4.659,233.6,4.183,0.514,-6.736,94.87829,-13.73,-12.35,64.81,0,108.7,13.97,-13.03,195.6
"2009-12-04 01:02:30",1472091,4.765,234.9,4.231,0.518,-6.786,94.87884,-13.73,-12.35,64.84,0,108.7,13.97,-13.03,196.9
"2009-12-04 01:03:00",1472092,4.726,236.5,5.122,0.501,-6.535,94.8783,-13.73,-12.34,64.96,0,108.7,13.97,-13.03,198.5
"2009-12-04 01:03:30",1472093,4.58,234.3,3.12,0.442,-6.729,94.88057,-13.72,-12.35,65.08,0,108.7,13.97,-13.02,196.3
"2009-12-04 01:04:00",1472094,4.642,232.3,4.202,0.591,-6.703,94.88025,-13.73,-12.33,65.13,0,108.7,13.97,-13.02,194.3
"2009-12-04 01:04:30",1472095,4.696,230,4.181,0.383,-6.654,94.87891,-13.73,-12.34,65.08,0,108.7,13.97,-13.03,192.0
"2009-12-04 01:05:00",1472096,4.742,230.9,4.702,0.417,-6.516,94.88074,-13.72,-12.33,64.97,0,108.7,13.97,-13.02,192.9
"2009-12-04 01:05:30",1472097,4.535,234.8,3.811,0.481,-6.867,94.87964,-13.73,-12.33,64.9,0,108.7,13.97,-13.02,196.8
"2009-12-04 01:06:00",1472098,4.599,232.1,3.378,0.511,-6.834,94.88078,-13.72,-12.33,64.82,0,108.7,13.97,-13.02,194.1
"2009-12-04 01:06:30",1472099,4.796,231.4,3.469,0.513,-6.875,94.87853,-13.73,-12.34,64.75,0,108.7,13.97,-13.03,193.4
"2009-12-04 01:07:00",1472100,4.733,230.9,4.35,0.593,-6.821,94.88016,-13.73,-12.34,64.7,0,108.7,13.97,-13.02,192.9
"2009-12-04 01:07:30",1472101,4.743,230.5,3.657,0.32,-6.601,94.88242,-13.72,-12.33,64.72,0,108.6,13.97,-13.02,192.5
"2009-12-04 01:08:00",1472102,4.681,229.2,4.01,0.498,-6.526,94.88465,-13.71,-12.33,64.71,0,108.7,13.97,-13.01,191.2
"2009-12-04 01:08:30",1472103,4.528,230.5,3.861,0.609,-6.626,94.88402,-13.72,-12.33,64.6,0,108.7,13.97,-13.01,192.5
"2009-12-04 01:09:00",1472104,4.679,231.3,4.527,0.506,-6.645,94.88317,-13.72,-12.34,64.52,0,108.7,13.97,-13.01,193.3
"2009-12-04 01:09:30",1472105,4.636,233.4,3.658,0.456,-6.725,94.88432,-13.72,-12.35,64.38,0,108.7,13.97,-13.01,195.4
"2009-12-04 01:10:00",1472106,4.679,234.9,2.891,0.578,-6.876,94.8857,-13.71,-12.33,64.31,0,108.7,13.97,-13.01,196.9
"2009-12-04 01:10:30",1472107,4.685,234.3,3.246,0.573,-6.881,94.88651,-13.71,-12.32,64.24,0,108.7,13.97,-13.01,196.3
"2009-12-04 01:11:00",1472108,4.62,233.2,4.162,0.47,-6.533,94.88766,-13.71,-12.33,64.2,0,108.7,13.97,-13.00,195.2
"2009-12-04 01:11:30",1472109,4.68,235,3.146,0.487,-6.812,94.88651,-13.71,-12.32,64.2,0,108.6,13.97,-13.01,197.0
"2009-12-04 01:12:00",1472110,4.504,234.6,3.672,0.639,-6.819,94.88766,-13.71,-12.32,64.12,0,108.7,13.97,-13.00,196.6
"2009-12-04 01:12:30",1472111,4.522,232.2,4.036,0.565,-6.626,94.88907,-13.7,-12.31,64.03,0,108.7,13.97,-13.00,194.2
"2009-12-04 01:13:00",1472112,4.45,233.3,3.59,0.537,-6.699,94.88936,-13.7,-12.33,63.86,0,108.7,13.97,-13.00,195.3
"2009-12-04 01:13:30",1472113,4.74,233.1,3.428,0.501,-6.84,94.88966,-13.7,-12.32,63.7,0,108.7,13.97,-13.00,195.1
"2009-12-04 01:14:00",1472114,4.783,235.6,4.077,0.492,-6.698,94.89107,-13.7,-12.32,63.69,0,108.7,13.97,-12.99,197.6
"2009-12-04 01:14:30",1472115,4.636,237.1,3.929,0.511,-6.695,94.88964,-13.7,-12.33,63.67,0,108.7,13.97,-13.00,199.1
"2009-12-04 01:15:00",1472116,4.704,238,3.569,0.509,-6.664,94.89165,-13.7,-12.31,63.69,0,108.7,13.97,-12.99,200.0
"2009-12-04 01:15:30",1472117,4.652,237.6,4.175,0.486,-6.657,94.89078,-13.7,-12.33,63.66,0,108.7,13.97,-13.00,199.6
"2009-12-04 01:16:00",1472118,4.591,235.4,3.538,0.616,-6.843,94.89192,-13.7,-12.3,63.62,0,108.7,13.97,-12.99,197.4
"2009-12-04 01:16:30",1472119,4.742,237.9,4.456,0.623,-6.739,94.8922,-13.7,-12.32,63.51,0,108.7,13.98,-12.99,199.9
"2009-12-04 01:17:00",1472120,4.653,242.3,3.322,0.457,-6.441,94.8942,-13.69,-12.33,63.46,0,108.7,13.98,-12.99,204.3
"2009-12-04 01:17:30",1472121,4.792,240.8,4.118,0.281,-6.73,94.89534,-13.69,-12.32,63.45,0,108.7,13.98,-12.98,202.8
"2009-12-04 01:18:00",1472122,4.579,242,4.171,0.61,-6.738,94.89647,-13.68,-12.3,63.46,0,108.7,13.98,-12.98,204.0
"2009-12-04 01:18:30",1472123,4.689,241.9,3.482,0.541,-6.929,94.8979,-13.68,-12.3,63.48,0,108.7,13.98,-12.98,203.9
"2009-12-04 01:19:00",1472124,4.711,244,3.999,0.513,-6.773,94.90046,-13.67,-12.31,63.49,0,108.7,13.98,-12.97,206.0
"2009-12-04 01:19:30",1472125,4.755,241.5,5.05,0.482,-6.918,94.90187,-13.67,-12.29,63.52,0,108.7,13.99,-12.97,203.5
"2009-12-04 01:20:00",1472126,4.693,241.3,4.191,0.53,-6.877,94.90501,-13.66,-12.3,63.62,0,108.7,13.99,-12.96,203.3
"2009-12-04 01:20:30",1472127,4.756,240.6,4.764,0.505,-6.859,94.90756,-13.66,-12.29,63.62,0,108.7,13.99,-12.95,202.6
"2009-12-04 01:21:00",1472128,4.693,239.3,3.517,0.517,-6.712,94.90955,-13.65,-12.31,63.53,0,108.7,13.99,-12.95,201.3
"2009-12-04 01:21:30",1472129,4.727,238.5,4.471,0.57,-6.828,94.90898,-13.65,-12.3,63.46,0,108.7,13.99,-12.95,200.5
"2009-12-04 01:22:00",1472130,4.58,237.8,3.929,0.622,-6.793,94.91154,-13.65,-12.28,63.34,0,108.7,13.99,-12.94,199.8
"2009-12-04 01:22:30",1472131,4.656,239.1,3.789,0.599,-6.797,94.91183,-13.65,-12.3,63.12,0,108.7,13.99,-12.94,201.1
"2009-12-04 01:23:00",1472132,4.603,238.2,3.998,0.508,-6.804,94.91296,-13.64,-12.29,62.95,0,108.7,13.99,-12.94,200.2
"2009-12-04 01:23:30",1472133,4.467,239.3,3.873,0.336,-6.858,94.91239,-13.64,-12.28,62.77,0,108.6,13.99,-12.94,201.3
"2009-12-04 01:24:00",1472134,4.458,241.1,4.188,0.496,-6.812,94.9141,-13.64,-12.29,62.59,0,108.7,13.99,-12.94,203.1
"2009-12-04 01:24:30",1472135,4.346,237.5,4.149,0.535,-7.027,94.91467,-13.64,-12.28,62.46,0,108.7,13.99,-12.93,199.5
"2009-12-04 01:25:00",1472136,4.743,238.4,4.269,0.488,-6.692,94.91467,-13.64,-12.29,62.34,0,108.7,13.99,-12.93,200.4
"2009-12-04 01:25:30",1472137,4.531,236,3.374,0.59,-6.952,94.91467,-13.64,-12.29,62.19,0,108.7,13.99,-12.93,198.0
"2009-12-04 01:26:00",1472138,4.46,236,4.256,0.614,-6.97,94.91467,-13.64,-12.27,61.99,0,108.7,13.99,-12.93,198.0
"2009-12-04 01:26:30",1472139,4.657,239.1,3.551,0.599,-6.803,94.91467,-13.64,-12.28,61.77,0,108.7,13.99,-12.93,201.1
"2009-12-04 01:27:00",1472140,4.554,239.7,4.018,0.674,-6.765,94.91467,-13.64,-12.27,61.65,0,108.7,13.99,-12.93,201.7
"2009-12-04 01:27:30",1472141,4.573,236,3.685,0.337,-6.945,94.91467,-13.64,-12.29,61.54,0,108.7,13.98,-12.93,198.0
"2009-12-04 01:28:00",1472142,4.536,236.7,3.895,0.566,-6.797,94.91467,-13.64,-12.27,61.37,0,108.7,13.98,-12.93,198.7
"2009-12-04 01:28:30",1472143,4.427,235.1,3.939,0.597,-6.908,94.91467,-13.64,-12.26,61.22,0,108.7,13.98,-12.93,197.1
"2009-12-04 01:29:00",1472144,4.443,237.8,4.431,0.515,-6.978,94.91467,-13.64,-12.27,61.01,0,108.7,13.98,-12.93,199.8
"2009-12-04 01:29:30",1472145,4.223,236.5,3.025,0.489,-6.864,94.91467,-13.64,-12.26,60.84,0,108.7,13.98,-12.93,198.5
"2009-12-04 01:30:00",1472146,4.486,234.2,3.574,0.632,-7.1,94.91467,-13.64,-12.27,60.63,0,108.7,13.98,-12.93,196.2
"2009-12-04 01:30:30",1472147,4.397,234.2,4.292,0.6,-6.964,94.91467,-13.64,-12.26,60.52,0,108.7,13.98,-12.93,196.2
"2009-12-04 01:31:00",1472148,4.518,231.1,3.945,0.499,-6.787,94.91467,-13.64,-12.26,60.5,0,108.7,13.98,-12.93,193.1
"2009-12-04 01:31:30",1472149,4.477,233.4,3.022,0.576,-7.03,94.91467,-13.64,-12.26,60.45,0,108.7,13.98,-12.93,195.4
"2009-12-04 01:32:00",1472150,4.575,234.3,3.981,0.582,-6.903,94.91467,-13.64,-12.27,60.45,0,108.7,13.98,-12.93,196.3
"2009-12-04 01:32:30",1472151,4.445,233.8,3.818,0.686,-6.954,94.91467,-13.64,-12.26,60.45,0,108.7,13.99,-12.93,195.8
"2009-12-04 01:33:00",1472152,4.327,234.1,3.233,0.67,-6.866,94.91467,-13.64,-12.26,60.46,0,108.7,13.99,-12.93,196.1
"2009-12-04 01:33:30",1472153,4.563,235.2,3.154,0.443,-7.058,94.91467,-13.64,-12.26,60.48,0,108.7,13.99,-12.93,197.2
"2009-12-04 01:34:00",1472154,4.471,234,4.14,0.502,-6.851,94.91467,-13.64,-12.26,60.46,0,108.7,13.99,-12.93,196.0
"2009-12-04 01:34:30",1472155,4.404,235,4.029,0.491,-7.058,94.91467,-13.64,-12.26,60.43,0,108.7,13.99,-12.93,197.0
"2009-12-04 01:35:00",1472156,4.399,234.2,4.04,0.49,-6.927,94.91467,-13.64,-12.25,60.51,0,108.7,13.99,-12.93,196.2
"2009-12-04 01:35:30",1472157,4.453,235.4,3.109,0.566,-7.161,94.91467,-13.64,-12.24,60.59,0,108.6,13.99,-12.93,197.4
"2009-12-04 01:36:00",1472158,4.389,236.3,3.805,0.591,-7.169,94.91467,-13.64,-12.24,60.69,0,108.7,13.99,-12.93,198.3
"2009-12-04 01:36:30",1472159,4.472,236,3.489,0.598,-7.097,94.91467,-13.64,-12.23,60.77,0,108.7,13.99,-12.93,198.0
"2009-12-04 01:37:00",1472160,4.494,235.6,2.983,0.593,-7.182,94.91467,-13.64,-12.25,60.88,0,108.7,13.99,-12.93,197.6
"2009-12-04 01:37:30",1472161,4.641,234.3,3.381,0.454,-6.88,94.91467,-13.64,-12.25,60.94,0,108.6,13.99,-12.93,196.3
"2009-12-04 01:38:00",1472162,4.512,233.5,3.199,0.677,-7.213,94.91467,-13.64,-12.24,61.01,0,108.7,13.99,-12.93,195.5
"2009-12-04 01:38:30",1472163,4.575,231.8,3.568,0.588,-6.947,94.91467,-13.64,-12.25,61.03,0,108.7,13.99,-12.93,193.8
"2009-12-04 01:39:00",1472164,4.599,231.5,3.1,0.672,-7.08,94.91467,-13.64,-12.23,61.08,0,108.7,13.99,-12.93,193.5
"2009-12-04 01:39:30",1472165,4.714,231.5,2.97,0.573,-6.946,94.91467,-13.64,-12.24,61.12,0,108.7,13.99,-12.93,193.5
"2009-12-04 01:40:00",1472166,4.726,230.4,3.66,0.679,-7.034,94.91467,-13.64,-12.23,61.17,0,108.7,13.99,-12.93,192.4
"2009-12-04 01:40:30",1472167,4.769,230.1,3.034,0.667,-6.871,94.91467,-13.64,-12.25,61.29,0,108.7,13.99,-12.93,192.1
"2009-12-04 01:41:00",1472168,4.744,230.1,2.537,0.735,-7.057,94.91467,-13.64,-12.24,61.39,0,108.7,13.99,-12.93,192.1
"2009-12-04 01:41:30",1472169,4.93,229.3,3.306,0.323,-6.753,94.91467,-13.64,-12.24,61.48,0,108.7,13.99,-12.93,191.3
"2009-12-04 01:42:00",1472170,4.875,229.9,3.544,0.602,-6.863,94.91467,-13.64,-12.23,61.65,0,108.7,13.99,-12.93,191.9
"2009-12-04 01:42:30",1472171,4.891,229.1,3.501,0.603,-6.744,94.91467,-13.64,-12.24,61.89,0,108.7,13.99,-12.93,191.1
"2009-12-04 01:43:00",1472172,4.857,229.2,3.529,0.602,-6.7,94.91467,-13.64,-12.22,62.16,0,108.7,13.99,-12.93,191.2